Regional Weather Roundup
Issued by NWS

Home | Current Version | Previous Version | Text Only | Print | Product List | Glossary Off
Versions: 1 2 3 4 5 6 7 8 9 10 11 12 13 14 15 16 17 18 19 20 21 22 23 24 25 26 27 28 29 30 31 32 33 34 35 36 37 38 39 40 41 42 43 44 45 46 47 48 49 50

233
ASUS43 KLOT 301403
RWRIL

ILLINOIS REGIONAL WEATHER ROUNDUP
NATIONAL WEATHER SERVICE CHICAGO/ROMEOVILLE IL
900 AM CDT SAT JUL 30 2016

NOTE: "FAIR" INDICATES FEW OR NO CLOUDS BELOW 12,000 FEET WITH NO
SIGNIFICANT WEATHER AND/OR OBSTRUCTIONS TO VISIBILITY.

* THESE STATIONS ARE NOT UNDER NWS QUALITY CONTROL. THEY ALSO MAY NOT
  REPORT WEATHER SUCH AS PRECIPITATION OR FOG.

ILZ001-002-007-009-015-016-024-301500-
NORTHWEST ILLINOIS

CITY           SKY/WX    TMP DP  RH WIND       PRES   REMARKS
MOLINE         CLOUDY    72  66  81 NE5       29.99R
STERLING*      CLOUDY    70  68  93 NE8       29.99F
SAVANNA*       PTSUNNY   71  66  84 NE5       30.00S
$$

ILZ003-004-008-010-011-017-018-301500-
NORTH CENTRAL ILLINOIS

CITY           SKY/WX    TMP DP  RH WIND       PRES   REMARKS
ROCKFORD       PTSUNNY   71  65  81 E8        30.01S
FREEPORT*      CLOUDY    67  64  89 NE7       30.03S
ROCHELLE*      CLOUDY    69  66  90 NE7       30.00S
DE KALB*       CLOUDY    71  67  88 NE7       30.00S
$$

ILZ005-006-012>014-019>023-301500-
NORTHEAST ILLINOIS

CITY           SKY/WX    TMP DP  RH WIND       PRES   REMARKS
CHICAGO-OHARE  PTSUNNY   72  66  81 NE10      29.97S
CHICAGO-MIDWAY PTSUNNY   72  65  78 NE9       29.97R
AURORA         CLOUDY    73  67  81 NE6       29.98R
LANSING*       CLOUDY    72  66  82 CALM      29.97R
WAUKEGAN       CLOUDY    72  65  78 NE9       29.99S
DUPAGE AIRPORT MOSUNNY   73  65  75 NE7       29.97S
KANKAKEE*      CLOUDY    69  68  97 CALM      29.97S FOG
WHEELING       CLOUDY    72  65  78 NE10      29.98F
MORRIS*        MOSUNNY   73  69  88 CALM      29.96S
NORTHERLY ISL    N/A     69  65  86 NE6         N/A
$$

LMZ740>746-301500-
SOUTHERN LAKE MICHIGAN

STATION/POSITION SKY/WX   TEMP    WIND        PRES    VSBY  WAVE
                          AIR SEA DIR/SP/G                  HT/PER
                          (F)     (DEG/KT/KT) (MB)    (MI)  (FT/S)
SOUTHERN BUOY              68 73   80/ 14/ 17 1014.8          3/ 4
WILMETTE HARBOR            69 71  100/  8/ 12   N/A           5/ 6
HARRISON CRIB              70      70/ 11/ 12   N/A
BURNHAM HARBOR             69      50/  6/ 10   N/A
CALUMET HARBOR             69      70/  7/  8 1014.1R
BURNS HARBOR               68     360/  2/ 13 1014.9S
MICHIGAN CITY              66      40/  4/  5   N/A
MICHIGAN CITY 6N           67 73   80/ 14/ 16   N/A           3/ 5
ST. JOSEPH                 65 70   40/ 14/ 17 1015.1R         3
$$

ILZ025>027-034>036-040-047-049-050-058-095>099-301500-
WEST-CENTRAL ILLINOIS

CITY           SKY/WX    TMP DP  RH WIND       PRES   REMARKS
QUINCY         CLOUDY    69  68  96 N7        30.00R
GALESBURG*     CLOUDY    70  67  90 N6        29.99R FOG
MACOMB*        CLOUDY    70  68  95 CALM      30.01R FOG
JACKSONVILLE*  CLOUDY    68  67  94 NW6       29.99S
PITTSFIELD*    PTSUNNY   69  67  92 NW3       30.01S
$$

ILZ028>032-037-038-041>044-048-051>054-059>061-301500-
CENTRAL ILLINOIS

CITY           SKY/WX    TMP DP  RH WIND       PRES   REMARKS
PONTIAC        CLOUDY    72  72 100 CALM      29.98S FOG
BLOOMINGTON    CLOUDY    70  67  90 N8        29.99S
DECATUR        SUNNY     76  66  71 W9        29.98S
PEORIA         CLOUDY    72  68  87 CALM      29.98R
LACON*         CLOUDY    70  68  92 CALM      29.97S FOG
LINCOLN*       CLOUDY    70  69  98 CALM      29.98S FOG
SPRINGFIELD    CLOUDY    69  66  90 NW6       30.00R
TAYLORVILLE    SUNNY     73  68  86 MISG      29.99R
$$

ILZ033-039-045-046-055>057-062-063-301500-
EAST-CENTRAL ILLINOIS

CITY           SKY/WX    TMP DP  RH WIND       PRES   REMARKS
CHAMPAIGN      PTSUNNY   72  68  87 W7        29.98S
MATTOON        SUNNY     74  66  76 W8        29.98R
PARIS*         SUNNY     75  70  85 CALM      29.99R
$$

ILZ079-100>102-301500-
SOUTHWEST ILLINOIS

CITY           SKY/WX    TMP DP  RH WIND       PRES   REMARKS
ALTON          MOSUNNY   73  68  83 VRB5      30.00R
BELLEVILLE     SUNNY     77  74  88 CALM      29.98R
CAHOKIA*       SUNNY     79  68  69 CALM      29.99R HX  81
SPARTA*        SUNNY     75  72  88 CALM      30.01R
$$

ILZ064>066-069>071-074>076-080>082-084>086-088>090-092>094-301500-
SOUTH-CENTRAL ILLINOIS

CITY           SKY/WX    TMP DP  RH WIND       PRES   REMARKS
CARBONDALE     MOSUNNY   76  70  82 CALM      29.99S
CAIRO*         CLOUDY    71  71 100 SW5       30.00R FOG
EFFINGHAM*     SUNNY     75  70  85 CALM      30.00S
MARION         PTSUNNY   75  72  88 SW6       30.00S
MT. VERNON     CLOUDY    75  68  78 SW3       30.00S
CENTRALIA*     MOSUNNY   76  72  87 W3        29.99S
SALEM*         MOSUNNY   76  69  76 CALM      29.99S
METROPOLIS*    MOSUNNY   77  72  85 SW3       30.00R
$$

ILZ067-068-072-073-078-083-087-091-301500-
SOUTHEAST ILLINOIS

CITY           SKY/WX    TMP DP  RH WIND       PRES   REMARKS
LAWRENCEVILLE  CLOUDY    76  69  79 CALM        N/A
FLORA*         SUNNY     77  70  79 NW5       29.99S
FAIRFIELD*     MOSUNNY   75  71  85 N3        29.98R
HARRISBURG*    CLOUDY    74  71  91 W6        30.00R
ROBINSON*      PTSUNNY   74  69  84 N5        30.00R
CARMI*         PTSUNNY   75  72  92 NW7       29.98S
$$

ABBREVIATIONS USED IN REMARKS
   TC - TEMPERATURE IN CELSIUS
  WCI - WIND CHILL INDEX
   HX - HEAT INDEX
  VSB - VISIBILITY
$$





USA.gov is the U.S. government's official web portal to all federal, state and local government web resources and services.